<?xml version="1.0" encoding="UTF-8" standalone="no" ?><gpx xmlns="http://www.topografix.com/GPX/1/1" xmlns:gpxx="http://www.garmin.com/xmlschemas/GpxExtensions/v3" xmlns:wptx1="http://www.garmin.com/xmlschemas/WaypointExtension/v1" xmlns:gpxtpx="http://www.garmin.com/xmlschemas/TrackPointExtension/v1" creator="GuideVTT.com" version="1.1" xmlns:xsi="http://www.w3.org/2001/XMLSchema-instance" xsi:schemaLocation="http://www.topografix.com/GPX/1/1 http://www.topografix.com/GPX/1/1/gpx.xsd http://www.garmin.com/xmlschemas/GpxExtensions/v3 http://www8.garmin.com/xmlschemas/GpxExtensionsv3.xsd http://www.garmin.com/xmlschemas/WaypointExtension/v1 http://www8.garmin.com/xmlschemas/WaypointExtensionv1.xsd http://www.garmin.com/xmlschemas/TrackPointExtension/v1 http://www.garmin.com/xmlschemas/TrackPointExtensionv1.xsd">
<metadata><link href="http://www.garmin.com"><text>Garmin International</text></link><time>2013-06-22T15:13:50Z</time></metadata>
<trk><name>parcours3.gpx</name><extensions><gpxx:TrackExtension><gpxx:DisplayColor>Cyan</gpxx:DisplayColor></gpxx:TrackExtension></extensions><trkseg>
<trkpt lat="46.22758788" lon="7.28058878"><ele>512</ele><time>1990-01-01T00:00:00Z</time></trkpt>
<trkpt lat="46.22762045" lon="7.28056742"><ele>512</ele><time>1990-01-01T00:00:00Z</time></trkpt>
<trkpt lat="46.22744140" lon="7.28041687"><ele>511</ele><time>1990-01-01T00:00:00Z</time></trkpt>
<trkpt lat="46.22731120" lon="7.28054607"><ele>511</ele><time>1990-01-01T00:00:00Z</time></trkpt>
<trkpt lat="46.22733562" lon="7.28121033"><ele>510</ele><time>1990-01-01T00:00:00Z</time></trkpt>
<trkpt lat="46.22741698" lon="7.28153280"><ele>510</ele><time>1990-01-01T00:00:00Z</time></trkpt>
<trkpt lat="46.22748210" lon="7.28149007"><ele>510</ele><time>1990-01-01T00:00:00Z</time></trkpt>
<trkpt lat="46.22767740" lon="7.28069560"><ele>512</ele><time>1990-01-01T00:00:00Z</time></trkpt>
<trkpt lat="46.22774252" lon="7.28024495"><ele>515</ele><time>1990-01-01T00:00:00Z</time></trkpt>
<trkpt lat="46.22758788" lon="7.27977295"><ele>522</ele><time>1990-01-01T00:00:00Z</time></trkpt>
<trkpt lat="46.22772623" lon="7.27927958"><ele>530</ele><time>1990-01-01T00:00:00Z</time></trkpt>
<trkpt lat="46.22797852" lon="7.27863567"><ele>536</ele><time>1990-01-01T00:00:00Z</time></trkpt>
<trkpt lat="46.22799480" lon="7.27833557"><ele>539</ele><time>1990-01-01T00:00:00Z</time></trkpt>
<trkpt lat="46.22779135" lon="7.27801310"><ele>547</ele><time>1990-01-01T00:00:00Z</time></trkpt>
<trkpt lat="46.22765300" lon="7.27754110"><ele>553</ele><time>1990-01-01T00:00:00Z</time></trkpt>
<trkpt lat="46.22738443" lon="7.27691955"><ele>555</ele><time>1990-01-01T00:00:00Z</time></trkpt>
<trkpt lat="46.22671712" lon="7.27595317"><ele>552</ele><time>1990-01-01T00:00:00Z</time></trkpt>
<trkpt lat="46.22649740" lon="7.27520243"><ele>547</ele><time>1990-01-01T00:00:00Z</time></trkpt>
<trkpt lat="46.22626140" lon="7.27485962"><ele>546</ele><time>1990-01-01T00:00:00Z</time></trkpt>
<trkpt lat="46.22596028" lon="7.27425842"><ele>546</ele><time>1990-01-01T00:00:00Z</time></trkpt>
<trkpt lat="46.22587077" lon="7.27372233"><ele>549</ele><time>1990-01-01T00:00:00Z</time></trkpt>
<trkpt lat="46.22573242" lon="7.27325032"><ele>553</ele><time>1990-01-01T00:00:00Z</time></trkpt>
<trkpt lat="46.22569987" lon="7.27249858"><ele>557</ele><time>1990-01-01T00:00:00Z</time></trkpt>
<trkpt lat="46.22574870" lon="7.27174785"><ele>556</ele><time>1990-01-01T00:00:00Z</time></trkpt>
<trkpt lat="46.22587077" lon="7.27168375"><ele>555</ele><time>1990-01-01T00:00:00Z</time></trkpt>
<trkpt lat="46.22624512" lon="7.27196248"><ele>555</ele><time>1990-01-01T00:00:00Z</time></trkpt>
<trkpt lat="46.22658692" lon="7.27243448"><ele>557</ele><time>1990-01-01T00:00:00Z</time></trkpt>
<trkpt lat="46.22682292" lon="7.27258505"><ele>560</ele><time>1990-01-01T00:00:00Z</time></trkpt>
<trkpt lat="46.22679850" lon="7.27245585"><ele>562</ele><time>1990-01-01T00:00:00Z</time></trkpt>
<trkpt lat="46.22649740" lon="7.27181193"><ele>568</ele><time>1990-01-01T00:00:00Z</time></trkpt>
<trkpt lat="46.22618002" lon="7.27129720"><ele>573</ele><time>1990-01-01T00:00:00Z</time></trkpt>
<trkpt lat="46.22591960" lon="7.27082520"><ele>578</ele><time>1990-01-01T00:00:00Z</time></trkpt>
<trkpt lat="46.22566732" lon="7.27015992"><ele>583</ele><time>1990-01-01T00:00:00Z</time></trkpt>
<trkpt lat="46.22527670" lon="7.26932272"><ele>589</ele><time>1990-01-01T00:00:00Z</time></trkpt>
<trkpt lat="46.22491048" lon="7.26835733"><ele>599</ele><time>1990-01-01T00:00:00Z</time></trkpt>
<trkpt lat="46.22452800" lon="7.26745605"><ele>603</ele><time>1990-01-01T00:00:00Z</time></trkpt>
<trkpt lat="46.22429198" lon="7.26717733"><ele>606</ele><time>1990-01-01T00:00:00Z</time></trkpt>
<trkpt lat="46.22409668" lon="7.26668397"><ele>610</ele><time>1990-01-01T00:00:00Z</time></trkpt>
<trkpt lat="46.22403157" lon="7.26629740"><ele>605</ele><time>1990-01-01T00:00:00Z</time></trkpt>
<trkpt lat="46.22416178" lon="7.26629740"><ele>605</ele><time>1990-01-01T00:00:00Z</time></trkpt>
<trkpt lat="46.22465007" lon="7.26651205"><ele>613</ele><time>1990-01-01T00:00:00Z</time></trkpt>
<trkpt lat="46.22484538" lon="7.26653340"><ele>617</ele><time>1990-01-01T00:00:00Z</time></trkpt>
<trkpt lat="46.22491048" lon="7.26616923"><ele>624</ele><time>1990-01-01T00:00:00Z</time></trkpt>
<trkpt lat="46.22501628" lon="7.26593323"><ele>625</ele><time>1990-01-01T00:00:00Z</time></trkpt>
<trkpt lat="46.22501628" lon="7.26569723"><ele>630</ele><time>1990-01-01T00:00:00Z</time></trkpt>
<trkpt lat="46.22486980" lon="7.26550395"><ele>635</ele><time>1990-01-01T00:00:00Z</time></trkpt>
<trkpt lat="46.22480468" lon="7.26546122"><ele>637</ele><time>1990-01-01T00:00:00Z</time></trkpt>
<trkpt lat="46.22471517" lon="7.26535340"><ele>640</ele><time>1990-01-01T00:00:00Z</time></trkpt>
<trkpt lat="46.22471517" lon="7.26531067"><ele>641</ele><time>1990-01-01T00:00:00Z</time></trkpt>
<trkpt lat="46.22500000" lon="7.26524658"><ele>646</ele><time>1990-01-01T00:00:00Z</time></trkpt>
<trkpt lat="46.22523600" lon="7.26475220"><ele>658</ele><time>1990-01-01T00:00:00Z</time></trkpt>
<trkpt lat="46.22521158" lon="7.26460267"><ele>661</ele><time>1990-01-01T00:00:00Z</time></trkpt>
<trkpt lat="46.22529297" lon="7.26438802"><ele>664</ele><time>1990-01-01T00:00:00Z</time></trkpt>
<trkpt lat="46.22518718" lon="7.26408793"><ele>667</ele><time>1990-01-01T00:00:00Z</time></trkpt>
<trkpt lat="46.22486980" lon="7.26348673"><ele>683</ele><time>1990-01-01T00:00:00Z</time></trkpt>
<trkpt lat="46.22505697" lon="7.26314290"><ele>688</ele><time>1990-01-01T00:00:00Z</time></trkpt>
<trkpt lat="46.22514648" lon="7.26307882"><ele>690</ele><time>1990-01-01T00:00:00Z</time></trkpt>
<trkpt lat="46.22521158" lon="7.26310018"><ele>690</ele><time>1990-01-01T00:00:00Z</time></trkpt>
<trkpt lat="46.22544760" lon="7.26337890"><ele>693</ele><time>1990-01-01T00:00:00Z</time></trkpt>
<trkpt lat="46.22551270" lon="7.26331482"><ele>695</ele><time>1990-01-01T00:00:00Z</time></trkpt>
<trkpt lat="46.22542318" lon="7.26307882"><ele>701</ele><time>1990-01-01T00:00:00Z</time></trkpt>
<trkpt lat="46.22538248" lon="7.26275737"><ele>707</ele><time>1990-01-01T00:00:00Z</time></trkpt>
<trkpt lat="46.22529297" lon="7.26243490"><ele>711</ele><time>1990-01-01T00:00:00Z</time></trkpt>
<trkpt lat="46.22514648" lon="7.26224263"><ele>714</ele><time>1990-01-01T00:00:00Z</time></trkpt>
<trkpt lat="46.22512207" lon="7.26213480"><ele>716</ele><time>1990-01-01T00:00:00Z</time></trkpt>
<trkpt lat="46.22517090" lon="7.26209208"><ele>718</ele><time>1990-01-01T00:00:00Z</time></trkpt>
<trkpt lat="46.22523600" lon="7.26213480"><ele>717</ele><time>1990-01-01T00:00:00Z</time></trkpt>
<trkpt lat="46.22583822" lon="7.26280008"><ele>718</ele><time>1990-01-01T00:00:00Z</time></trkpt>
<trkpt lat="46.22590332" lon="7.26290690"><ele>718</ele><time>1990-01-01T00:00:00Z</time></trkpt>
<trkpt lat="46.22618002" lon="7.26290690"><ele>719</ele><time>1990-01-01T00:00:00Z</time></trkpt>
<trkpt lat="46.22643230" lon="7.26314290"><ele>719</ele><time>1990-01-01T00:00:00Z</time></trkpt>
<trkpt lat="46.22660318" lon="7.26350810"><ele>720</ele><time>1990-01-01T00:00:00Z</time></trkpt>
<trkpt lat="46.22780762" lon="7.26404418"><ele>743</ele><time>1990-01-01T00:00:00Z</time></trkpt>
<trkpt lat="46.22808432" lon="7.26451620"><ele>742</ele><time>1990-01-01T00:00:00Z</time></trkpt>
<trkpt lat="46.22827962" lon="7.26511738"><ele>746</ele><time>1990-01-01T00:00:00Z</time></trkpt>
<trkpt lat="46.22840983" lon="7.26546122"><ele>748</ele><time>1990-01-01T00:00:00Z</time></trkpt>
<trkpt lat="46.22849122" lon="7.26556803"><ele>749</ele><time>1990-01-01T00:00:00Z</time></trkpt>
<trkpt lat="46.22858073" lon="7.26584677"><ele>753</ele><time>1990-01-01T00:00:00Z</time></trkpt>
<trkpt lat="46.22889812" lon="7.26599732"><ele>774</ele><time>1990-01-01T00:00:00Z</time></trkpt>
<trkpt lat="46.22898763" lon="7.26634013"><ele>777</ele><time>1990-01-01T00:00:00Z</time></trkpt>
<trkpt lat="46.22901205" lon="7.26659852"><ele>778</ele><time>1990-01-01T00:00:00Z</time></trkpt>
<trkpt lat="46.22911783" lon="7.26657613"><ele>781</ele><time>1990-01-01T00:00:00Z</time></trkpt>
<trkpt lat="46.22927247" lon="7.26625468"><ele>790</ele><time>1990-01-01T00:00:00Z</time></trkpt>
<trkpt lat="46.22928873" lon="7.26614787"><ele>792</ele><time>1990-01-01T00:00:00Z</time></trkpt>
<trkpt lat="46.22937012" lon="7.26623332"><ele>793</ele><time>1990-01-01T00:00:00Z</time></trkpt>
<trkpt lat="46.22967937" lon="7.26666260"><ele>794</ele><time>1990-01-01T00:00:00Z</time></trkpt>
<trkpt lat="46.22973633" lon="7.26664123"><ele>797</ele><time>1990-01-01T00:00:00Z</time></trkpt>
<trkpt lat="46.22973633" lon="7.26634013"><ele>802</ele><time>1990-01-01T00:00:00Z</time></trkpt>
<trkpt lat="46.22978515" lon="7.26619058"><ele>803</ele><time>1990-01-01T00:00:00Z</time></trkpt>
<trkpt lat="46.23036295" lon="7.26672668"><ele>814</ele><time>1990-01-01T00:00:00Z</time></trkpt>
<trkpt lat="46.23059897" lon="7.26722005"><ele>817</ele><time>1990-01-01T00:00:00Z</time></trkpt>
<trkpt lat="46.23102213" lon="7.26846517"><ele>832</ele><time>1990-01-01T00:00:00Z</time></trkpt>
<trkpt lat="46.23117677" lon="7.26874390"><ele>836</ele><time>1990-01-01T00:00:00Z</time></trkpt>
<trkpt lat="46.23139648" lon="7.26902262"><ele>838</ele><time>1990-01-01T00:00:00Z</time></trkpt>
<trkpt lat="46.23151855" lon="7.26908672"><ele>839</ele><time>1990-01-01T00:00:00Z</time></trkpt>
<trkpt lat="46.23154297" lon="7.26904398"><ele>840</ele><time>1990-01-01T00:00:00Z</time></trkpt>
<trkpt lat="46.23158365" lon="7.26790670"><ele>852</ele><time>1990-01-01T00:00:00Z</time></trkpt>
<trkpt lat="46.23154297" lon="7.26741333"><ele>857</ele><time>1990-01-01T00:00:00Z</time></trkpt>
<trkpt lat="46.23142903" lon="7.26700542"><ele>860</ele><time>1990-01-01T00:00:00Z</time></trkpt>
<trkpt lat="46.23139648" lon="7.26627605"><ele>867</ele><time>1990-01-01T00:00:00Z</time></trkpt>
<trkpt lat="46.23133138" lon="7.26601868"><ele>868</ele><time>1990-01-01T00:00:00Z</time></trkpt>
<trkpt lat="46.23133138" lon="7.26582540"><ele>869</ele><time>1990-01-01T00:00:00Z</time></trkpt>
<trkpt lat="46.23136393" lon="7.26584677"><ele>870</ele><time>1990-01-01T00:00:00Z</time></trkpt>
<trkpt lat="46.23164877" lon="7.26625468"><ele>874</ele><time>1990-01-01T00:00:00Z</time></trkpt>
<trkpt lat="46.23192545" lon="7.26659852"><ele>875</ele><time>1990-01-01T00:00:00Z</time></trkpt>
<trkpt lat="46.23218587" lon="7.26702677"><ele>884</ele><time>1990-01-01T00:00:00Z</time></trkpt>
<trkpt lat="46.23280437" lon="7.26752115"><ele>895</ele><time>1990-01-01T00:00:00Z</time></trkpt>
<trkpt lat="46.23314615" lon="7.26797180"><ele>901</ele><time>1990-01-01T00:00:00Z</time></trkpt>
<trkpt lat="46.23352052" lon="7.26859335"><ele>908</ele><time>1990-01-01T00:00:00Z</time></trkpt>
<trkpt lat="46.23381348" lon="7.26897990"><ele>912</ele><time>1990-01-01T00:00:00Z</time></trkpt>
<trkpt lat="46.23411458" lon="7.26925863"><ele>914</ele><time>1990-01-01T00:00:00Z</time></trkpt>
<trkpt lat="46.23454590" lon="7.26955973"><ele>915</ele><time>1990-01-01T00:00:00Z</time></trkpt>
<trkpt lat="46.23495280" lon="7.26970927"><ele>916</ele><time>1990-01-01T00:00:00Z</time></trkpt>
<trkpt lat="46.23542480" lon="7.26998800"><ele>915</ele><time>1990-01-01T00:00:00Z</time></trkpt>
<trkpt lat="46.23583170" lon="7.27035318"><ele>915</ele><time>1990-01-01T00:00:00Z</time></trkpt>
<trkpt lat="46.23604330" lon="7.27073975"><ele>917</ele><time>1990-01-01T00:00:00Z</time></trkpt>
<trkpt lat="46.23583170" lon="7.27140503"><ele>921</ele><time>1990-01-01T00:00:00Z</time></trkpt>
<trkpt lat="46.23587240" lon="7.27181193"><ele>921</ele><time>1990-01-01T00:00:00Z</time></trkpt>
<trkpt lat="46.23587240" lon="7.27271322"><ele>921</ele><time>1990-01-01T00:00:00Z</time></trkpt>
<trkpt lat="46.23593750" lon="7.27316387"><ele>919</ele><time>1990-01-01T00:00:00Z</time></trkpt>
<trkpt lat="46.23575032" lon="7.27333578"><ele>918</ele><time>1990-01-01T00:00:00Z</time></trkpt>
<trkpt lat="46.23559570" lon="7.27322897"><ele>917</ele><time>1990-01-01T00:00:00Z</time></trkpt>
<trkpt lat="46.23544922" lon="7.27297058"><ele>916</ele><time>1990-01-01T00:00:00Z</time></trkpt>
<trkpt lat="46.23534343" lon="7.27251993"><ele>916</ele><time>1990-01-01T00:00:00Z</time></trkpt>
<trkpt lat="46.23525390" lon="7.27234903"><ele>914</ele><time>1990-01-01T00:00:00Z</time></trkpt>
<trkpt lat="46.23503418" lon="7.27204793"><ele>911</ele><time>1990-01-01T00:00:00Z</time></trkpt>
<trkpt lat="46.23488770" lon="7.27166240"><ele>910</ele><time>1990-01-01T00:00:00Z</time></trkpt>
<trkpt lat="46.23474122" lon="7.27101847"><ele>906</ele><time>1990-01-01T00:00:00Z</time></trkpt>
<trkpt lat="46.23456218" lon="7.27082520"><ele>905</ele><time>1990-01-01T00:00:00Z</time></trkpt>
<trkpt lat="46.23448080" lon="7.27140503"><ele>901</ele><time>1990-01-01T00:00:00Z</time></trkpt>
<trkpt lat="46.23437500" lon="7.27179057"><ele>899</ele><time>1990-01-01T00:00:00Z</time></trkpt>
<trkpt lat="46.23444010" lon="7.27234903"><ele>896</ele><time>1990-01-01T00:00:00Z</time></trkpt>
<trkpt lat="46.23501790" lon="7.27389323"><ele>890</ele><time>1990-01-01T00:00:00Z</time></trkpt>
<trkpt lat="46.23542480" lon="7.27453715"><ele>887</ele><time>1990-01-01T00:00:00Z</time></trkpt>
<trkpt lat="46.23593750" lon="7.27481588"><ele>880</ele><time>1990-01-01T00:00:00Z</time></trkpt>
<trkpt lat="46.23600260" lon="7.27488098"><ele>879</ele><time>1990-01-01T00:00:00Z</time></trkpt>
<trkpt lat="46.23598633" lon="7.27531027"><ele>878</ele><time>1990-01-01T00:00:00Z</time></trkpt>
<trkpt lat="46.23606772" lon="7.27657572"><ele>874</ele><time>1990-01-01T00:00:00Z</time></trkpt>
<trkpt lat="46.23622233" lon="7.27728373"><ele>867</ele><time>1990-01-01T00:00:00Z</time></trkpt>
<trkpt lat="46.23653972" lon="7.27812093"><ele>861</ele><time>1990-01-01T00:00:00Z</time></trkpt>
<trkpt lat="46.23690593" lon="7.27960103"><ele>849</ele><time>1990-01-01T00:00:00Z</time></trkpt>
<trkpt lat="46.23692220" lon="7.28056742"><ele>841</ele><time>1990-01-01T00:00:00Z</time></trkpt>
<trkpt lat="46.23671875" lon="7.28099568"><ele>836</ele><time>1990-01-01T00:00:00Z</time></trkpt>
<trkpt lat="46.23675130" lon="7.28176880"><ele>830</ele><time>1990-01-01T00:00:00Z</time></trkpt>
<trkpt lat="46.23699545" lon="7.28337808"><ele>823</ele><time>1990-01-01T00:00:00Z</time></trkpt>
<trkpt lat="46.23694662" lon="7.28541667"><ele>815</ele><time>1990-01-01T00:00:00Z</time></trkpt>
<trkpt lat="46.23716635" lon="7.28653260"><ele>812</ele><time>1990-01-01T00:00:00Z</time></trkpt>
<trkpt lat="46.23778483" lon="7.28792725"><ele>805</ele><time>1990-01-01T00:00:00Z</time></trkpt>
<trkpt lat="46.23776042" lon="7.28827007"><ele>804</ele><time>1990-01-01T00:00:00Z</time></trkpt>
<trkpt lat="46.23744303" lon="7.28822733"><ele>801</ele><time>1990-01-01T00:00:00Z</time></trkpt>
<trkpt lat="46.23712565" lon="7.28799133"><ele>800</ele><time>1990-01-01T00:00:00Z</time></trkpt>
<trkpt lat="46.23636882" lon="7.28700460"><ele>788</ele><time>1990-01-01T00:00:00Z</time></trkpt>
<trkpt lat="46.23600260" lon="7.28646748"><ele>782</ele><time>1990-01-01T00:00:00Z</time></trkpt>
<trkpt lat="46.23589682" lon="7.28636068"><ele>779</ele><time>1990-01-01T00:00:00Z</time></trkpt>
<trkpt lat="46.23529460" lon="7.28449402"><ele>755</ele><time>1990-01-01T00:00:00Z</time></trkpt>
<trkpt lat="46.23514812" lon="7.28382873"><ele>749</ele><time>1990-01-01T00:00:00Z</time></trkpt>
<trkpt lat="46.23495280" lon="7.28346355"><ele>745</ele><time>1990-01-01T00:00:00Z</time></trkpt>
<trkpt lat="46.23471680" lon="7.28264872"><ele>734</ele><time>1990-01-01T00:00:00Z</time></trkpt>
<trkpt lat="46.23424480" lon="7.28196208"><ele>721</ele><time>1990-01-01T00:00:00Z</time></trkpt>
<trkpt lat="46.23403320" lon="7.28179017"><ele>717</ele><time>1990-01-01T00:00:00Z</time></trkpt>
<trkpt lat="46.23374837" lon="7.28112488"><ele>706</ele><time>1990-01-01T00:00:00Z</time></trkpt>
<trkpt lat="46.23362630" lon="7.28095297"><ele>702</ele><time>1990-01-01T00:00:00Z</time></trkpt>
<trkpt lat="46.23334147" lon="7.28065287"><ele>698</ele><time>1990-01-01T00:00:00Z</time></trkpt>
<trkpt lat="46.23284505" lon="7.28033142"><ele>693</ele><time>1990-01-01T00:00:00Z</time></trkpt>
<trkpt lat="46.23299968" lon="7.28009542"><ele>687</ele><time>1990-01-01T00:00:00Z</time></trkpt>
<trkpt lat="46.23299968" lon="7.27981567"><ele>686</ele><time>1990-01-01T00:00:00Z</time></trkpt>
<trkpt lat="46.23229167" lon="7.27949422"><ele>681</ele><time>1990-01-01T00:00:00Z</time></trkpt>
<trkpt lat="46.23208008" lon="7.27927958"><ele>678</ele><time>1990-01-01T00:00:00Z</time></trkpt>
<trkpt lat="46.23186035" lon="7.27897948"><ele>672</ele><time>1990-01-01T00:00:00Z</time></trkpt>
<trkpt lat="46.23177083" lon="7.27848510"><ele>666</ele><time>1990-01-01T00:00:00Z</time></trkpt>
<trkpt lat="46.23177083" lon="7.27816365"><ele>660</ele><time>1990-01-01T00:00:00Z</time></trkpt>
<trkpt lat="46.23167318" lon="7.27801310"><ele>657</ele><time>1990-01-01T00:00:00Z</time></trkpt>
<trkpt lat="46.23150228" lon="7.27812093"><ele>656</ele><time>1990-01-01T00:00:00Z</time></trkpt>
<trkpt lat="46.23130697" lon="7.27812093"><ele>656</ele><time>1990-01-01T00:00:00Z</time></trkpt>
<trkpt lat="46.23116048" lon="7.27799173"><ele>655</ele><time>1990-01-01T00:00:00Z</time></trkpt>
<trkpt lat="46.23057455" lon="7.27706910"><ele>650</ele><time>1990-01-01T00:00:00Z</time></trkpt>
<trkpt lat="46.22973633" lon="7.27616780"><ele>633</ele><time>1990-01-01T00:00:00Z</time></trkpt>
<trkpt lat="46.22935385" lon="7.27571717"><ele>626</ele><time>1990-01-01T00:00:00Z</time></trkpt>
<trkpt lat="46.22919922" lon="7.27550252"><ele>624</ele><time>1990-01-01T00:00:00Z</time></trkpt>
<trkpt lat="46.22915853" lon="7.27586772"><ele>617</ele><time>1990-01-01T00:00:00Z</time></trkpt>
<trkpt lat="46.22910157" lon="7.27593180"><ele>614</ele><time>1990-01-01T00:00:00Z</time></trkpt>
<trkpt lat="46.22885742" lon="7.27666218"><ele>599</ele><time>1990-01-01T00:00:00Z</time></trkpt>
<trkpt lat="46.22866212" lon="7.27711182"><ele>589</ele><time>1990-01-01T00:00:00Z</time></trkpt>
<trkpt lat="46.22872722" lon="7.27777710"><ele>585</ele><time>1990-01-01T00:00:00Z</time></trkpt>
<trkpt lat="46.22889812" lon="7.27816365"><ele>584</ele><time>1990-01-01T00:00:00Z</time></trkpt>
<trkpt lat="46.22889812" lon="7.27861430"><ele>582</ele><time>1990-01-01T00:00:00Z</time></trkpt>
<trkpt lat="46.22902832" lon="7.27906495"><ele>580</ele><time>1990-01-01T00:00:00Z</time></trkpt>
<trkpt lat="46.22930502" lon="7.27925822"><ele>582</ele><time>1990-01-01T00:00:00Z</time></trkpt>
<trkpt lat="46.22944337" lon="7.27964478"><ele>585</ele><time>1990-01-01T00:00:00Z</time></trkpt>
<trkpt lat="46.22971192" lon="7.28080343"><ele>579</ele><time>1990-01-01T00:00:00Z</time></trkpt>
<trkpt lat="46.22993163" lon="7.28125407"><ele>574</ele><time>1990-01-01T00:00:00Z</time></trkpt>
<trkpt lat="46.23003743" lon="7.28159688"><ele>572</ele><time>1990-01-01T00:00:00Z</time></trkpt>
<trkpt lat="46.23008627" lon="7.28211162"><ele>568</ele><time>1990-01-01T00:00:00Z</time></trkpt>
<trkpt lat="46.22986653" lon="7.28275553"><ele>562</ele><time>1990-01-01T00:00:00Z</time></trkpt>
<trkpt lat="46.22944337" lon="7.28271282"><ele>559</ele><time>1990-01-01T00:00:00Z</time></trkpt>
<trkpt lat="46.22924805" lon="7.28281962"><ele>556</ele><time>1990-01-01T00:00:00Z</time></trkpt>
<trkpt lat="46.22910157" lon="7.28316345"><ele>551</ele><time>1990-01-01T00:00:00Z</time></trkpt>
<trkpt lat="46.22902832" lon="7.28337808"><ele>549</ele><time>1990-01-01T00:00:00Z</time></trkpt>
<trkpt lat="46.22898763" lon="7.28421530"><ele>545</ele><time>1990-01-01T00:00:00Z</time></trkpt>
<trkpt lat="46.22885742" lon="7.28423665"><ele>542</ele><time>1990-01-01T00:00:00Z</time></trkpt>
<trkpt lat="46.22872722" lon="7.28400065"><ele>541</ele><time>1990-01-01T00:00:00Z</time></trkpt>
<trkpt lat="46.22843425" lon="7.28331400"><ele>533</ele><time>1990-01-01T00:00:00Z</time></trkpt>
<trkpt lat="46.22821452" lon="7.28305562"><ele>529</ele><time>1990-01-01T00:00:00Z</time></trkpt>
<trkpt lat="46.22810872" lon="7.28260498"><ele>523</ele><time>1990-01-01T00:00:00Z</time></trkpt>
<trkpt lat="46.22814942" lon="7.28241272"><ele>520</ele><time>1990-01-01T00:00:00Z</time></trkpt>
<trkpt lat="46.22804362" lon="7.28209025"><ele>516</ele><time>1990-01-01T00:00:00Z</time></trkpt>
<trkpt lat="46.22791342" lon="7.28202617"><ele>516</ele><time>1990-01-01T00:00:00Z</time></trkpt>
<trkpt lat="46.22744140" lon="7.28202617"><ele>514</ele><time>1990-01-01T00:00:00Z</time></trkpt>
</trkseg></trk></gpx>